Weather History for KWYS - September, 2013

Change the Weather History Date:

Saturday, September 7, 2013

  Actual Average Record
Temperature  
Mean Temperature 57 °F -  
Max Temperature 75 °F 71 °F 75 °F (2013)
Min Temperature 39 °F 35 °F 26 °F (2012)
Degree Days  
Heating Degree Days 8    
Growing Degree Days 7 (Base 50)    
Moisture  
Dew Point 51 °F    
Average Humidity 84    
Maximum Humidity 89    
Minimum Humidity 81    
Precipitation  
Precipitation 0.09 in - - ()
Sea Level Pressure  
Sea Level Pressure 30.28 in    
Wind  
Wind Speed 3 mph (SW)    
Max Wind Speed 21 mph    
Max Gust Speed 29 mph    
Visibility 10 miles    
Events Rain    
Averages and records for this station are not official NWS values.
T = Trace of Precipitation, MM = Missing Value Source: NWS Daily Summary

Daily Weather History Graph

Daily Weather History Graph

Search for Another Location

Airport or City:

Trip Planner

Search our weather history database for the weather conditions in past years. The results will help you decide how hot, cold, wet, or windy it might be!

Date:

Astronomy

Sep. 07, 2013 Rise Set
Actual Time 6:54 AM MDT 7:49 PM MDT
Civil Twilight 6:24 AM MDT 8:19 PM MDT
Nautical Twilight 5:49 AM MDT 8:54 PM MDT
Astronomical Twilight 5:11 AM MDT 9:31 PM MDT
Moon 9:20 AM MDT (9/7) 8:41 PM MDT (9/7)
Length of Visible Light 13h 54m
Length of Day
12h 55m
Waxing Crescent, 5% of the Moon is Illuminated
Sep 7
Waxing Crescent
Sep 12
First Quarter
Sep 19
Full
Sep 26
Last Quarter
Oct 4
New

Hourly Weather History & Observations

Time (MDT) Temp. Windchill Dew Point Humidity Pressure Visibility Wind Dir Wind Speed Gust Speed Precip Events Conditions
12:10 AM 53.6 °F - 48.2 °F 82% 30.28 in 10.0 mi NNE 3.5 mph - N/A   Overcast
12:30 AM 51.8 °F - 48.2 °F 88% 30.28 in 10.0 mi Calm Calm - N/A   Mostly Cloudy
12:50 AM 51.8 °F - 46.4 °F 82% 30.28 in 10.0 mi Calm Calm - N/A   Overcast
1:10 AM 51.8 °F - 48.2 °F 88% 30.28 in 10.0 mi SSE 4.6 mph - N/A   Overcast
1:30 AM 51.8 °F - 46.4 °F 82% 30.28 in 10.0 mi Calm Calm - N/A   Overcast
1:50 AM 51.8 °F - 46.4 °F 82% 30.28 in 10.0 mi SSE 3.5 mph - N/A   Mostly Cloudy
2:10 AM 50.0 °F - 44.6 °F 82% 30.28 in 10.0 mi Calm Calm - N/A   Partly Cloudy
2:30 AM 48.2 °F - 42.8 °F 82% 30.28 in 10.0 mi Calm Calm - N/A   Clear
2:50 AM 46.4 °F - 41.0 °F 81% 30.28 in 10.0 mi Calm Calm - N/A   Clear
3:10 AM 46.4 °F - 41.0 °F 81% 30.29 in 10.0 mi Calm Calm - N/A   Clear
3:30 AM 46.4 °F - 41.0 °F 81% 30.29 in 10.0 mi Calm Calm - N/A   Clear
3:50 AM 44.6 °F - 41.0 °F 87% 30.28 in 10.0 mi Calm Calm - N/A   Clear
4:10 AM 44.6 °F - 39.2 °F 81% 30.28 in 10.0 mi Calm Calm - N/A   Clear
4:30 AM 44.6 °F - 39.2 °F 81% 30.29 in 10.0 mi Calm Calm - N/A   Clear
4:50 AM 41.0 °F - 37.4 °F 87% 30.28 in 10.0 mi Calm Calm - N/A   Clear
5:05 AM 41.0 °F - 37.4 °F 87% 30.29 in 10.0 mi Calm Calm - N/A   Clear
5:30 AM 41.0 °F - 37.4 °F 87% 30.29 in 10.0 mi Calm Calm - N/A   Clear
5:50 AM 41.0 °F - 37.4 °F 87% 30.29 in 10.0 mi Calm Calm - N/A   Clear
6:10 AM 41.0 °F - 35.6 °F 81% 30.29 in 10.0 mi Calm Calm - N/A   Clear
6:30 AM 39.2 °F - 35.6 °F 87% 30.29 in 10.0 mi Calm Calm - N/A   Clear
6:50 AM 39.2 °F - 35.6 °F 87% 30.29 in 10.0 mi Calm Calm - N/A   Clear
7:10 AM 41.0 °F 39.0 °F 37.4 °F 87% 30.30 in 10.0 mi West 3.5 mph - N/A   Clear
7:30 AM 42.8 °F - 37.4 °F 81% 30.30 in 10.0 mi Calm Calm - N/A   Clear
7:50 AM 44.6 °F - 39.2 °F 81% 30.30 in 10.0 mi Calm Calm - N/A   Clear
8:10 AM 44.6 °F - 39.2 °F 81% 30.30 in 10.0 mi Calm Calm - N/A   Clear
8:30 AM 48.2 °F - 44.6 °F 87% 30.30 in 10.0 mi Calm Calm - N/A   Scattered Clouds
8:50 AM 50.0 °F - 46.4 °F 87% 30.31 in 10.0 mi Calm Calm - N/A   Partly Cloudy
9:10 AM 53.6 °F - 48.2 °F 82% 30.31 in 10.0 mi Calm Calm - N/A   Clear
9:30 AM 55.4 °F - 50.0 °F 82% 30.31 in 10.0 mi ENE 3.5 mph - N/A   Clear
9:50 AM 57.2 °F - 53.6 °F 88% 30.31 in 10.0 mi Calm Calm - N/A   Clear
10:10 AM 59.0 °F - 55.4 °F 88% 30.31 in 10.0 mi Calm Calm - N/A   Clear
10:30 AM 64.4 °F - 59.0 °F 83% 30.30 in 10.0 mi South 9.2 mph - N/A   Clear
10:50 AM 66.2 °F - 60.8 °F 83% 30.30 in 10.0 mi SSW 11.5 mph - N/A   Clear
11:10 AM 66.2 °F - 62.6 °F 88% 30.30 in 10.0 mi South 12.7 mph 17.3 mph N/A   Clear
11:30 AM 68.0 °F - 64.4 °F 88% 30.30 in 10.0 mi WSW 8.1 mph - N/A   Clear
11:50 AM 68.0 °F - 64.4 °F 88% 30.29 in 10.0 mi SW 9.2 mph - N/A   Clear
12:10 PM 69.8 °F - 64.4 °F 83% 30.29 in 10.0 mi West 4.6 mph - N/A   Clear
12:30 PM 69.8 °F - 64.4 °F 83% 30.28 in 10.0 mi SW 5.8 mph - N/A   Partly Cloudy
12:50 PM 71.6 °F - 66.2 °F 83% 30.28 in 10.0 mi SW 8.1 mph - N/A   Partly Cloudy
1:10 PM 71.6 °F - 66.2 °F 83% 30.27 in 10.0 mi WSW 9.2 mph 19.6 mph N/A   Clear
1:30 PM 71.6 °F - 66.2 °F 83% 30.27 in 10.0 mi SW 8.1 mph 18.4 mph N/A   Partly Cloudy
1:50 PM 73.4 °F - 68.0 °F 83% 30.26 in 10.0 mi South 11.5 mph 18.4 mph N/A   Scattered Clouds
2:10 PM 73.4 °F - 68.0 °F 83% 30.25 in 10.0 mi SSW 15.0 mph 24.2 mph N/A   Partly Cloudy
2:30 PM 75.2 °F - 71.6 °F 89% 30.25 in 10.0 mi SSW 20.7 mph 26.5 mph N/A   Clear
2:50 PM 73.4 °F - 68.0 °F 83% 30.25 in 10.0 mi SW 17.3 mph 28.8 mph N/A   Clear
3:10 PM 73.4 °F - 68.0 °F 83% 30.24 in 10.0 mi SW 16.1 mph 21.9 mph N/A   Clear
3:30 PM 73.4 °F - 68.0 °F 83% 30.24 in 10.0 mi SSW 17.3 mph 26.5 mph N/A   Clear
3:50 PM 73.4 °F - 68.0 °F 83% 30.23 in 10.0 mi SSW 11.5 mph 23.0 mph N/A   Clear
4:10 PM 73.4 °F - 68.0 °F 83% 30.22 in 10.0 mi SW 16.1 mph 23.0 mph N/A   Clear
4:30 PM 73.4 °F - 68.0 °F 83% 30.23 in 10.0 mi WSW 15.0 mph 25.3 mph N/A   Partly Cloudy
4:50 PM 71.6 °F - 66.2 °F 83% 30.23 in 10.0 mi SW 12.7 mph 18.4 mph N/A   Clear
5:10 PM 69.8 °F - 64.4 °F 83% 30.26 in 10.0 mi West 17.3 mph 26.5 mph N/A   Mostly Cloudy
5:30 PM 57.2 °F - 51.8 °F 82% 30.29 in 4.0 mi WSW 12.7 mph 19.6 mph 0.09 in Rain Light Rain
5:50 PM 57.2 °F - 51.8 °F 82% 30.29 in 10.0 mi SSE 11.5 mph - 0.09 in   Mostly Cloudy
6:10 PM 57.2 °F - 51.8 °F 82% 30.29 in 10.0 mi ENE 4.6 mph - N/A   Overcast
6:30 PM 57.2 °F - 51.8 °F 82% 30.28 in 10.0 mi ENE 6.9 mph - N/A   Mostly Cloudy
6:50 PM 57.2 °F - 53.6 °F 88% 30.27 in 10.0 mi ENE 3.5 mph - N/A   Mostly Cloudy
7:10 PM 57.2 °F - 51.8 °F 82% 30.26 in 10.0 mi NW 4.6 mph - N/A   Partly Cloudy
7:30 PM 55.4 °F - 51.8 °F 88% 30.26 in 10.0 mi Calm Calm - N/A   Clear
7:50 PM 55.4 °F - 50.0 °F 82% 30.26 in 10.0 mi WNW 4.6 mph - N/A   Clear
8:10 PM 53.6 °F - 50.0 °F 88% 30.26 in 10.0 mi Calm Calm - N/A   Clear
8:30 PM 53.6 °F - 48.2 °F 82% 30.26 in 10.0 mi Calm Calm - N/A   Clear
8:50 PM 53.6 °F - 48.2 °F 82% 30.26 in 10.0 mi Calm Calm - N/A   Clear
9:10 PM 50.0 °F - 46.4 °F 87% 30.26 in 10.0 mi Calm Calm - N/A   Clear
9:30 PM 50.0 °F - 46.4 °F 87% 30.26 in 10.0 mi Calm Calm - N/A   Clear
9:50 PM 50.0 °F - 46.4 °F 87% 30.26 in 10.0 mi Calm Calm - N/A   Clear
10:10 PM 50.0 °F - 46.4 °F 87% 30.27 in 10.0 mi Calm Calm - N/A   Clear
10:30 PM 50.0 °F - 46.4 °F 87% 30.26 in 10.0 mi Calm Calm - N/A   Clear
10:50 PM 50.0 °F - 46.4 °F 87% 30.25 in 10.0 mi Calm Calm - N/A   Clear
11:10 PM 48.2 °F - 44.6 °F 87% 30.25 in 10.0 mi NW 4.6 mph - N/A   Clear
11:30 PM 48.2 °F - 44.6 °F 87% 30.25 in 10.0 mi Calm Calm - N/A   Clear
11:50 PM 46.4 °F - 42.8 °F 87% 30.25 in 10.0 mi Calm Calm - N/A   Clear